W7KKE-3 Weather Reports


Display with metric or nautical units.
time (UTC)temp
F
wind
direction
speed
MPH
gust
MPH
rain 1hr
in
rain 24hr
in
rain mn
in
humidity
%
barometer
mb
20141223025312 52 96 2.0 6.0 0.00 0.13 0.08 95 1027.5
20141223024810 52 130 0.0 8.0 0.00 0.13 0.08 95 1027.5
20141223024333 53 151 0.0 8.0 0.00 0.13 0.08 95 1027.5
20141223024049 52 128 1.0 8.0 0.00 0.13 0.08 95 1027.6
20141223021811 53 0 0.0 5.0 0.00 0.13 0.08 95 1027.4
20141223021310 53 82 0.0 5.0 0.00 0.13 0.08 95 1027.5
20141223020810 53 162 0.0 5.0 0.00 0.13 0.08 95 1027.5
20141223020310 53 140 0.0 4.0 0.00 0.14 0.08 95 1027.5
20141223015811 53 0 0.0 0.0 0.00 0.14 0.08 95 1027.4
20141223015313 53 0 0.0 0.0 0.00 0.14 0.08 95 1027.5
20141223014810 53 0 0.0 0.0 0.00 0.14 0.08 95 1027.7
20141223014312 53 96 0.0 8.0 0.00 0.14 0.08 95 1027.7
20141223013810 53 121 0.0 8.0 0.00 0.14 0.08 95 1027.7
20141223013310 53 107 0.0 8.0 0.00 0.14 0.08 95 1027.5
20141223012810 54 99 0.0 3.0 0.00 0.14 0.08 95 1027.5
20141223012310 54 0 0.0 0.0 0.00 0.14 0.08 95 1027.5
20141223011810 54 0 0.0 0.0 0.00 0.14 0.08 95 1027.5
20141223011310 54 0 0.0 0.0 0.00 0.14 0.08 95 1027.6
20141223010811 54 0 0.0 0.0 0.00 0.14 0.08 95 1027.7
20141223010310 54 0 0.0 0.0 0.00 0.14 0.08 95 1027.8
20141223005810 54 0 0.0 0.0 0.00 0.14 0.08 95 1027.7
20141223005310 55 0 0.0 0.0 0.00 0.14 0.08 95 1027.8
20141223004811 55 0 0.0 0.0 0.00 0.14 0.08 95 1027.9
20141223004311 55 0 0.0 0.0 0.00 0.14 0.08 95 1027.8
20141223003812 55 0 0.0 0.0 0.00 0.14 0.08 95 1027.9
20141223003310 55 0 0.0 0.0 0.00 0.14 0.08 95 1028.0
20141223002810 55 0 0.0 0.0 0.00 0.14 0.08 95 1028.0
20141223002310 56 0 0.0 0.0 0.00 0.14 0.08 95 1028.0
20141223001811 56 0 0.0 0.0 0.00 0.14 0.08 95 1028.0
20141223001313 56 0 0.0 0.0 0.00 0.14 0.08 95 1027.9
20141223000811 56 0 0.0 0.0 0.00 0.14 0.08 95 1027.9
20141223000311 56 0 0.0 0.0 0.00 0.14 0.08 95 1028.0
20141222235810 56 0 0.0 0.0 0.00 0.14 0.08 95 1028.1
20141222235312 56 0 0.0 0.0 0.00 0.14 0.08 95 1028.1
20141222234811 56 0 0.0 0.0 0.00 0.14 0.08 95 1027.9
20141222234310 56 0 0.0 0.0 0.00 0.14 0.08 95 1028.0
20141222233813 56 0 0.0 0.0 0.00 0.14 0.08 95 1027.7
20141222233311 56 0 0.0 0.0 0.00 0.14 0.08 94 1027.6
20141222232812 57 0 0.0 0.0 0.00 0.14 0.08 94 1027.6
20141222232312 57 0 0.0 0.0 0.00 0.14 0.08 95 1027.6
20141222231810 57 0 0.0 0.0 0.00 0.14 0.08 94 1027.6
20141222231312 57 0 0.0 0.0 0.00 0.14 0.08 94 1027.8
20141222230811 57 0 0.0 0.0 0.00 0.14 0.08 94 1028.0
20141222230311 57 0 0.0 0.0 0.00 0.15 0.08 94 1028.1
20141222225310 57 0 0.0 3.0 0.00 0.15 0.08 94 1028.1
20141222224812 57 292 0.0 3.0 0.00 0.15 0.08 94 1028.1
20141222224312 57 291 0.0 5.0 0.00 0.15 0.08 94 1028.2
20141222223813 57 296 0.0 5.0 0.00 0.15 0.08 94 1028.2
20141222223311 57 281 0.0 5.0 0.00 0.15 0.08 94 1028.0
20141222222810 57 0 2.0 5.0 0.00 0.15 0.08 94 1028.2
20141222222311 57 278 0.0 5.0 0.00 0.15 0.08 94 1028.1
20141222221812 57 281 2.0 5.0 0.00 0.15 0.08 94 1028.1
20141222221311 57 277 2.0 5.0 0.00 0.15 0.08 94 1028.1
20141222220812 57 278 0.0 5.0 0.00 0.15 0.08 94 1028.1
20141222220312 57 296 3.0 5.0 0.00 0.16 0.08 94 1028.0
20141222215810 57 292 3.0 6.0 0.00 0.16 0.08 94 1028.2
20141222215312 57 292 1.0 6.0 0.00 0.16 0.08 94 1028.2
20141222214812 57 303 4.0 6.0 0.00 0.16 0.08 94 1028.2
20141222214311 57 289 2.0 5.0 0.00 0.16 0.08 94 1028.1
20141222213812 57 319 3.0 5.0 0.00 0.16 0.08 94 1028.4
20141222213311 57 292 2.0 5.0 0.00 0.16 0.08 94 1028.4
20141222212811 57 288 3.0 5.0 0.00 0.16 0.08 94 1028.4
20141222212311 57 287 3.0 5.0 0.00 0.16 0.08 94 1028.4
20141222211812 57 271 0.0 3.0 0.00 0.16 0.08 94 1028.4
20141222211310 57 0 0.0 0.0 0.00 0.16 0.08 94 1028.5
20141222210811 57 0 0.0 0.0 0.00 0.16 0.08 94 1028.3
20141222210312 57 0 0.0 5.0 0.00 0.16 0.08 94 1028.6
20141222205810 57 295 0.0 5.0 0.00 0.16 0.08 94 1028.7
20141222205312 57 298 4.0 5.0 0.00 0.16 0.08 94 1028.8
20141222204811 57 275 0.0 5.0 0.00 0.16 0.08 94 1028.9
20141222203810 57 275 3.0 6.0 0.00 0.16 0.08 95 1029.0
20141222203312 57 277 3.0 6.0 0.00 0.16 0.08 95 1029.2
20141222202810 57 264 3.0 6.0 0.00 0.16 0.08 95 1029.1
20141222202311 57 277 0.0 5.0 0.00 0.16 0.08 95 1029.0
20141222201811 57 0 0.0 5.0 0.00 0.16 0.08 95 1029.1
20141222200311 57 273 3.0 5.0 0.00 0.16 0.08 95 1029.1
20141222195811 57 280 0.0 5.0 0.00 0.16 0.08 95 1028.8
20141222195312 57 287 3.0 5.0 0.00 0.16 0.08 95 1029.2
20141222193811 57 0 0.0 0.0 0.00 0.16 0.08 95 1029.5
20141222193311 57 0 0.0 0.0 0.00 0.16 0.08 94 1029.3
20141222192811 57 0 0.0 0.0 0.00 0.16 0.08 95 1029.3
20141222190811 56 0 0.0 0.0 0.00 0.16 0.08 95 1029.6
20141222190311 56 0 0.0 0.0 0.00 0.16 0.08 96 1029.7
20141222185811 56 0 0.0 0.0 0.00 0.16 0.08 96 1029.7
20141222185311 56 0 0.0 0.0 0.00 0.16 0.08 96 1029.8
20141222184811 55 0 0.0 0.0 0.00 0.16 0.08 96 1029.9
20141222184312 55 0 0.0 0.0 0.00 0.16 0.08 96 1030.0
20141222182311 53 0 0.0 0.0 0.00 0.16 0.08 97 1030.1
20141222181811 53 0 0.0 0.0 0.00 0.16 0.08 97 1030.0
20141222175813 51 0 0.0 0.0 0.00 0.16 0.08 97 1030.4
20141222175311 51 0 0.0 0.0 0.00 0.16 0.08 97 1030.3
20141222173311 50 0 0.0 0.0 0.00 0.16 0.08 97 1030.2
20141222172811 50 0 0.0 0.0 0.00 0.16 0.08 97 1030.2
20141222172311 50 0 0.0 0.0 0.00 0.16 0.08 97 1030.1
20141222171811 50 0 0.0 0.0 0.00 0.16 0.08 97 1030.1
20141222171311 50 0 0.0 0.0 0.00 0.16 0.08 97 1030.1
20141222170811 50 0 0.0 0.0 0.00 0.16 0.08 97 1030.0
20141222170311 49 0 0.0 0.0 0.00 0.16 0.08 97 1029.9
20141222165812 49 0 0.0 6.0 0.00 0.16 0.08 97 1029.9
20141222165311 49 74 0.0 6.0 0.00 0.16 0.08 97 1029.9
20141222164811 49 64 0.0 6.0 0.00 0.16 0.08 97 1029.8
20141222164310 49 0 0.0 0.0 0.00 0.16 0.08 97 1029.9
20141222163810 49 0 0.0 0.0 0.00 0.16 0.08 97 1029.9
20141222163310 49 0 0.0 0.0 0.00 0.16 0.08 97 1029.9
20141222162810 49 0 0.0 0.0 0.00 0.16 0.08 97 1029.8
20141222162312 49 0 0.0 0.0 0.00 0.16 0.08 97 1029.8
20141222161811 49 0 0.0 0.0 0.00 0.16 0.08 97 1029.7
20141222161311 49 0 0.0 0.0 0.00 0.16 0.08 97 1029.6
20141222160811 50 0 0.0 0.0 0.00 0.16 0.08 97 1029.6
20141222154810 50 0 0.0 0.0 0.00 0.17 0.08 97 1029.4
20141222154311 50 0 0.0 0.0 0.00 0.17 0.08 97 1029.3
20141222153810 50 0 0.0 0.0 0.00 0.17 0.08 97 1029.1
20141222153310 50 0 0.0 0.0 0.00 0.17 0.08 97 1029.0
20141222152810 50 0 0.0 0.0 0.00 0.17 0.08 97 1028.9
20141222152310 50 0 0.0 0.0 0.00 0.17 0.08 97 1028.8
20141222151811 50 0 0.0 0.0 0.00 0.17 0.08 97 1028.6
20141222151311 50 0 0.0 0.0 0.00 0.17 0.08 97 1028.6
20141222150811 50 0 0.0 0.0 0.00 0.17 0.08 97 1028.4
20141222150310 50 0 0.0 0.0 0.00 0.19 0.08 97 1028.3
20141222145810 51 0 0.0 0.0 0.00 0.19 0.08 97 1028.2
20141222145312 51 0 0.0 0.0 0.00 0.19 0.08 97 1028.2
20141222144812 51 0 0.0 0.0 0.00 0.19 0.08 97 1028.1
20141222144310 51 0 0.0 0.0 0.00 0.19 0.08 97 1028.0
20141222143812 51 0 0.0 0.0 0.00 0.19 0.08 97 1028.0
20141222143310 52 0 0.0 0.0 0.00 0.19 0.08 97 1027.9
20141222142812 52 0 0.0 0.0 0.00 0.19 0.08 96 1027.9
20141222140810 53 0 0.0 0.0 0.00 0.19 0.08 96 1027.8
20141222140310 53 0 0.0 5.0 0.00 0.23 0.08 96 1027.8
20141222135811 53 0 0.0 5.0 0.00 0.23 0.08 96 1027.7
20141222135311 53 355 0.0 5.0 0.00 0.23 0.08 96 1027.7
20141222134810 53 313 0.0 12.0 0.00 0.23 0.08 96 1027.7
20141222134310 53 319 3.0 12.0 0.00 0.23 0.08 96 1027.7
20141222133810 54 313 4.0 12.0 0.00 0.23 0.08 97 1027.7
20141222133310 54 313 7.0 10.0 0.00 0.23 0.08 97 1027.7
20141222132811 54 301 6.0 10.0 0.00 0.23 0.08 97 1027.7
20141222132312 54 306 6.0 13.0 0.00 0.23 0.08 97 1027.7
20141222131810 54 312 6.0 13.0 0.00 0.23 0.08 97 1027.7
20141222131311 53 312 9.0 13.0 0.00 0.23 0.08 97 1027.7
20141222130812 53 305 9.0 11.0 0.00 0.23 0.08 97 1027.6
20141222130310 52 291 6.0 11.0 0.00 0.25 0.08 97 1027.6
20141222125810 52 273 6.0 9.0 0.00 0.25 0.08 97 1027.5
20141222125310 52 0 3.0 3.0 0.00 0.25 0.08 97 1027.5
20141222124811 52 0 0.0 0.0 0.00 0.25 0.08 97 1027.5
20141222124311 52 0 0.0 0.0 0.00 0.25 0.08 97 1027.5
20141222123811 52 0 0.0 0.0 0.00 0.25 0.08 97 1027.4
20141222123310 52 0 0.0 0.0 0.00 0.25 0.08 97 1027.4
20141222122811 52 0 0.0 0.0 0.00 0.25 0.08 97 1027.4
20141222122310 52 0 0.0 0.0 0.00 0.25 0.08 97 1027.4
20141222121810 52 0 0.0 0.0 0.00 0.25 0.08 97 1027.4
20141222121311 52 0 0.0 0.0 0.00 0.25 0.08 97 1027.3
20141222120811 52 0 0.0 0.0 0.00 0.25 0.08 97 1027.2
20141222120310 52 0 0.0 0.0 0.00 0.27 0.08 97 1027.2
20141222115810 52 0 0.0 0.0 0.00 0.27 0.08 97 1027.1
20141222115311 52 0 0.0 0.0 0.00 0.27 0.08 97 1027.0
20141222114810 52 0 0.0 0.0 0.00 0.27 0.08 97 1026.9
20141222114311 52 0 0.0 0.0 0.00 0.27 0.08 97 1026.8
20141222113810 52 0 0.0 0.0 0.00 0.27 0.08 96 1026.6
20141222113311 52 0 0.0 0.0 0.00 0.27 0.08 96 1026.6
20141222112810 52 0 0.0 0.0 0.00 0.27 0.08 96 1026.5
20141222112310 52 0 0.0 7.0 0.00 0.27 0.08 96 1026.6
20141222111811 53 348 0.0 7.0 0.00 0.27 0.08 96 1026.7
20141222111310 53 340 3.0 7.0 0.01 0.27 0.08 96 1026.6
20141222110811 53 340 3.0 5.0 0.01 0.27 0.08 96 1026.3
20141222110310 53 326 3.0 13.0 0.02 0.27 0.08 96 1026.2
20141222105810 53 327 2.0 13.0 0.02 0.27 0.08 97 1026.1
20141222105310 53 287 9.0 13.0 0.02 0.27 0.08 97 1026.2
20141222104811 53 322 5.0 14.0 0.02 0.27 0.08 97 1026.2
20141222104311 53 299 5.0 14.0 0.02 0.27 0.08 97 1026.3
20141222103810 53 296 8.0 14.0 0.02 0.27 0.08 96 1026.1
20141222103311 53 305 7.0 11.0 0.02 0.27 0.08 96 1026.0
20141222102809 53 303 7.0 13.0 0.02 0.27 0.08 96 1025.5
20141222102310 53 337 5.0 13.0 0.03 0.27 0.08 96 1025.5
20141222101810 53 305 6.0 13.0 0.03 0.27 0.08 96 1025.6
20141222101311 54 299 7.0 14.0 0.02 0.27 0.08 97 1025.6
20141222100810 53 294 10.0 14.0 0.02 0.27 0.07 97 1025.8
20141222100310 53 294 7.0 14.0 0.02 0.27 0.07 97 1025.8
20141222095810 53 296 8.0 13.0 0.02 0.27 0.06 96 1025.6
20141222095310 53 303 8.0 10.0 0.03 0.27 0.06 97 1025.5
20141222094810 53 310 6.0 13.0 0.03 0.27 0.06 97 1025.5
20141222094311 53 296 7.0 13.0 0.03 0.27 0.06 97 1025.4
20141222093811 53 299 7.0 13.0 0.03 0.27 0.06 96 1025.5
20141222093310 53 301 8.0 13.0 0.03 0.27 0.06 97 1025.5
20141222092811 53 324 9.0 14.0 0.03 0.27 0.06 97 1025.6
20141222092310 53 313 10.0 14.0 0.03 0.27 0.05 97 1025.6
20141222091810 53 306 9.0 14.0 0.03 0.27 0.05 97 1025.6
20141222091309 53 302 8.0 14.0 0.04 0.27 0.05 97 1025.5
20141222090810 53 299 6.0 14.0 0.04 0.27 0.05 96 1025.5
20141222090311 53 298 8.0 14.0 0.03 0.23 0.05 96 1025.5
20141222085810 53 327 9.0 18.0 0.03 0.23 0.04 96 1025.3
20141222084310 53 305 12.0 19.0 0.03 0.23 0.03 96 1025.1
20141222083810 53 306 10.0 19.0 0.03 0.23 0.03 96 1025.1
20141222083310 54 278 11.0 19.0 0.04 0.23 0.03 96 1025.0
20141222081810 54 319 12.0 15.0 0.03 0.23 0.02 96 1024.7
20141222081310 54 309 10.0 15.0 0.02 0.23 0.02 96 1024.6
20141222080811 53 305 10.0 14.0 0.02 0.23 0.01 96 1024.5
20141222080310 53 316 7.0 11.0 0.02 0.23 0.00 96 1024.5
20141222075810 53 296 8.0 15.0 0.02 0.23 0.23 96 1024.5
20141222075310 54 275 9.0 15.0 0.02 0.23 0.23 96 1024.5
20141222074811 54 309 10.0 15.0 0.02 0.23 0.23 96 1024.6
20141222074311 54 305 10.0 15.0 0.01 0.23 0.23 96 1024.6
20141222073811 54 295 9.0 15.0 0.01 0.23 0.22 96 1024.5
20141222073311 54 303 10.0 15.0 0.01 0.23 0.22 96 1024.4
20141222072811 54 284 7.0 10.0 0.01 0.23 0.21 96 1024.5
20141222072310 53 270 6.0 9.0 0.02 0.23 0.21 96 1024.4
20141222070310 53 0 0.0 0.0 0.02 0.22 0.21 96 1024.0
20141222065810 53 260 0.0 6.0 0.02 0.22 0.21 96 1023.8
20141222063810 54 256 6.0 12.0 0.02 0.22 0.21 96 1023.7
20141222063310 54 264 3.0 12.0 0.01 0.22 0.21 96 1023.7
20141222062809 54 267 7.0 10.0 0.01 0.22 0.20 96 1023.7
20141222062311 54 285 7.0 10.0 0.00 0.22 0.20 96 1023.9
20141222061810 54 253 7.0 9.0 0.00 0.22 0.20 96 1023.9
20141222061310 54 266 5.0 10.0 0.00 0.22 0.19 96 1024.0
20141222060811 54 260 6.0 10.0 0.00 0.22 0.19 96 1024.0
20141222054809 54 267 4.0 11.0 0.00 0.22 0.19 96 1023.8
20141222054311 54 263 4.0 11.0 0.00 0.22 0.19 96 1023.8
20141222053811 54 250 4.0 11.0 0.00 0.22 0.19 96 1023.9
20141222053310 54 267 7.0 11.0 0.00 0.22 0.19 96 1024.0
20141222052810 54 175 3.0 9.0 0.00 0.22 0.19 96 1023.9
20141222052310 54 217 3.0 9.0 0.00 0.22 0.19 96 1023.8
20141222051810 54 277 3.0 9.0 0.00 0.22 0.19 96 1023.7
20141222050312 54 243 5.0 9.0 0.00 0.22 0.19 96 1023.5
20141222045810 54 245 3.0 7.0 0.00 0.22 0.19 96 1023.6
20141222045311 54 233 3.0 7.0 0.00 0.22 0.19 96 1023.5
20141222044810 54 200 2.0 7.0 0.00 0.22 0.19 96 1023.5
20141222042810 55 236 4.0 11.0 0.00 0.22 0.19 96 1023.6
20141222041310 55 270 2.0 11.0 0.00 0.22 0.19 96 1023.6
20141222040809 55 245 6.0 11.0 0.00 0.22 0.19 96 1023.5
20141222040310 55 263 7.0 11.0 0.00 0.22 0.19 96 1023.5
20141222035811 55 257 6.0 14.0 0.00 0.22 0.19 96 1023.5
20141222035310 55 250 6.0 14.0 0.00 0.22 0.19 96 1023.6
20141222034810 55 291 9.0 14.0 0.00 0.22 0.19 96 1023.6
20141222034310 55 222 7.0 13.0 0.01 0.22 0.19 96 1023.6
20141222033809 55 221 6.0 13.0 0.01 0.22 0.19 96 1023.6
20141222033310 55 240 6.0 13.0 0.01 0.22 0.19 96 1023.5
20141222032811 55 222 5.0 13.0 0.01 0.22 0.19 96 1023.5
20141222032311 55 221 4.0 8.0 0.01 0.22 0.19 96 1023.5
20141222031810 54 148 0.0 8.0 0.01 0.22 0.19 96 1023.4
20141222031310 54 214 3.0 8.0 0.02 0.22 0.19 96 1023.4
20141222030811 54 232 1.0 8.0 0.02 0.22 0.19 96 1023.3